National Weather Service United States Department of Commerce

Latest Hourly Weather Roundup

TOPSWRTT 000
TTAA00 KICT 150112

Wichita AWIPS Roundup
National Weather Service Wichita KS
800 PM CDT SUN AUG 14 2022

....Central Kansas....
  
CITY           SKY/WX    TMP DP  RH WIND       PRES   REMARKS
RUSSELL        CLEAR     96  53  23 S10       29.87F HX  93           
SALINA         CLEAR     97  57  26 E7        29.89R HX  96           
GREAT BEND     CLEAR     95  57  27 SE12      29.90F HX  94           
ELLSWORTH      CLEAR     93  57  29 E7        29.88S HX  92           
LYONS          FAIR      93  56  27 SE8       29.90S HX  91           
MCPHERSON      CLEAR     93  60  32 SE9       29.90S HX  93           
HAYS           CLEAR     96  53  23 SE14      29.88S HX  93           

....South Central Kansas....
  
CITY           SKY/WX    TMP DP  RH WIND       PRES   REMARKS
HUTCHINSON     CLEAR     94  59  31 SE7       29.89S HX  93           
NEWTON         CLEAR     92  61  35 S6        29.92S HX  92           
KINGMAN        CLEAR     91  52  25 S5        29.91S HX  89           
WICHITA (ICT)  PTCLDY    94  60  32 SE12      29.90S HX  94           
JABARA ARPT    CLEAR     95  58  28 S10       29.91S HX  94           
BEECH ARPT     CLEAR     94  58  29 S9        29.91S HX  92           
MCCONNELL AFB  NOT AVBL                                               
BENTON         FAIR      93  55  28 S8        29.91S HX  91           
EL DORADO      FAIR      93  55  27 S6        29.91S HX  91           
AUGUSTA        CLEAR     93  52  24 S6        29.91S HX  90           
WELLINGTON     CLEAR     95  60  31 SE6       29.91S HX  94           
WINFIELD       CLEAR     94  60  32 SE8       29.92S HX  94           
 
....Southeast Kansas....
  
CITY           SKY/WX    TMP DP  RH WIND       PRES   REMARKS
EUREKA         CLEAR     93  62  36 S8        29.91S HX  93           
IOLA           FAIR      94  57  29 S3        29.92S HX  92           
CHANUTE        CLEAR     96  62  32 S7        29.90S HX  97           
PARSONS        CLEAR     95  61  32 S7        29.92R HX  95           
COFFEYVILLE    CLEAR     95  61  32 S8        29.89S HX  95           
INDEPENDENCE   CLEAR     93  60  33 CALM      29.91S HX  93           
FORT SCOTT     PTCLDY    91  73  56 NE6       29.91S HX  99           
PITTSBURG      CLEAR     92  65  39 S7        29.91R HX  94           

....Western Kansas....
  
CITY           SKY/WX    TMP DP  RH WIND       PRES   REMARKS
GOODLAND       CLEAR     94  48  20 S18       29.91F HX  90           
HILL CITY      PTCLDY    97  54  23 S13G21    29.88S HX  95           
LIBERAL        CLEAR     95  55  26 S15       29.94F HX  93           
GARDEN CITY    CLEAR     93  55  27 SE15      29.92F HX  91           
DODGE CITY     CLEAR     94  53  25 SE14      29.92F HX  91           
PRATT          PTCLDY    97  52  21 S12       29.92S HX  94           
MEDICINE LODGE   N/A     96  57  27 S6          N/A  HX  95           

....Northeast Kansas....
  
CITY           SKY/WX    TMP DP  RH WIND       PRES   REMARKS
CONCORDIA      CLEAR     90  70  51 E8        29.90F HX  95           
TOPEKA         CLEAR     89  74  60 NE7       29.92R HX  98           
MANHATTAN      CLEAR     90  69  50 E8        29.90S HX  94           
LAWRENCE       CLEAR     84  69  60 NE12      29.93S HX  88           
OLATHE         PTCLDY    87  68  52 E10       29.95R HX  90           
EMPORIA        CLEAR     92  67  43 E8        29.90S HX  95           

....Oklahoma....
  
CITY           SKY/WX    TMP DP  RH WIND       PRES   REMARKS
GAGE           CLEAR     93  56  28 SE10      29.93S HX  91           
PONCA CITY     CLEAR     94  61  33 SE9       29.90S HX  94           
BARTLESVILLE   CLEAR     91  63  39 S3        29.91S HX  92           
TULSA          PTCLDY    94  61  33 SE7       29.90R HX  94           
OKLAHOMA CITY  CLEAR     92  58  31 SE9       29.92S HX  91           

Note: "fair" indicates few or no clouds below 12,000 feet with no
significant weather and/or obstructions to visibility.